User: anonymous   Login
Location: *
(2.5500°S, 65.9667°W)
Time: 18:19:53
(UTC+00:00)
Language:

DELTA-4 R/B - Orbit

View from above orbital plane
View from above orbital plane
View from above satellite
View from above satellite

Ground track
Ground track

The orbit data is extracted from the following two-line orbital elements,

1 27555U 02051B   22024.53080725 -.00000087  00000-0 -53819-3 0  9998
2 27555  13.8626 306.8641 7107729  98.9362 340.4942  2.35606730165022
Epoch (UTC): 24 January 2022 12:44:21
Eccentricity: 0.7107729
inclination: 13.8626°
perigee height: 522 km
apogee height: 34435 km
right ascension of ascending node: 306.8641°
argument of perigee: 98.9362°
revolutions per day: 2.35606730
mean anomaly at epoch: 340.4942°
orbit number at epoch: 16502

The dashed part of the orbit path shows where the satellite is in the earth's shadow,  

DLR